Location: Fort Wayne
(41.1310°N, 85.1290°W)
Time: 18:29:43
(UTC-04:00)

Cosmos 2219 Rocket - Visible Passes

Search period start: 26 March 2015 00:00
Search period end: 05 April 2015 00:00
Orbit: 830 x 845 km, 71.0° (Epoch: 26 March)

Date Brightness Start Highest point End Pass type
(mag) Time Alt. Az. Time Alt. Az. Time Alt. Az.
26 Mar 3.3 20:59:39 10° N 21:04:12 25° NE 21:06:52 18° E visible
26 Mar 2.8 22:43:04 10° NW 22:48:28 49° WSW 22:48:38 49° WSW visible
27 Mar 3.4 20:43:27 10° N 20:47:51 24° NE 20:51:31 13° E visible
27 Mar 2.7 22:26:44 10° NNW 22:32:12 53° WSW 22:33:17 46° SSW visible
28 Mar 3.5 20:27:15 10° N 20:31:30 22° NE 20:35:53 10° ESE visible
28 Mar 2.6 22:10:25 10° NNW 22:15:55 58° WSW 22:18:01 36° S visible
29 Mar 2.5 21:54:06 10° NNW 21:59:39 63° WSW 22:02:50 25° S visible
30 Mar 2.4 21:37:47 10° NNW 21:43:22 68° WSW 21:47:46 17° S visible
31 Mar 2.4 21:21:29 10° NNW 21:27:05 73° WSW 21:32:41 10° SSE visible
01 Apr 2.3 21:05:11 10° NNW 21:10:48 79° WSW 21:16:25 10° SSE visible
02 Apr 2.3 20:48:53 10° NNW 20:54:31 85° WSW 21:00:09 10° SSE visible
02 Apr 5.1 22:36:41 10° W 22:37:45 10° W 22:38:23 10° WSW visible
03 Apr 2.2 20:32:35 10° NNW 20:38:14 89° ENE 20:43:52 10° SSE visible
03 Apr 5.0 22:19:33 10° WNW 22:21:30 11° W 22:23:04 10° WSW visible
04 Apr 5.0 22:02:46 10° WNW 22:05:15 13° W 22:07:24 10° WSW visible
